This is the latest recevied weather packets stored in our database for station/object KC0RPY. If no packets are shown the sender has not sent any weather packets the latest 10 day(s).
| Time | Temp. | Humidity | Pressure | Rain* | Wind** | Luminosity | Snow |
|---|---|---|---|---|---|---|---|
| 1788616531 | 28.89° C | 64% | 1015.7 hPa | 0 mm | - | 212 W/m² | - |
| 1788616225 | 28.89° C | 65% | 1016 hPa | 0 mm | - | 71 W/m² | - |
| 1788615920 | 28.89° C | 65% | 1015.7 hPa | 0 mm | - | 170 W/m² | - |
| 1788615619 | 28.33° C | 65% | 1016 hPa | 0 mm | - | 148 W/m² | - |
| 1788615314 | 28.33° C | 66% | 1015.7 hPa | 0 mm | - | 117 W/m² | - |
| 1788615014 | 28.33° C | 66% | 1015.3 hPa | 0 mm | - | 139 W/m² | - |
| 1788614708 | 27.78° C | 67% | 1015.3 hPa | 0 mm | - | 138 W/m² | - |
| 1788614403 | 27.22° C | 67% | 1015.3 hPa | 0 mm | - | 126 W/m² | - |
| 1788614099 | 27.22° C | 69% | 1015.3 hPa | 0 mm | - | 70 W/m² | - |
| 1788613794 | 26.67° C | 69% | 1015.3 hPa | 0 mm | - | 51 W/m² | - |
| 1788613493 | 26.67° C | 69% | 1015 hPa | 0 mm | - | 50 W/m² | - |
| 1788613193 | 26.67° C | 69% | 1015 hPa | 0 mm | - | 47 W/m² | - |
| 1788612888 | 26.67° C | 69% | 1015 hPa | 0 mm | - | 40 W/m² | - |
| 1788612583 | 26.67° C | 69% | 1015 hPa | 0 mm | - | 39 W/m² | - |
| 1788612280 | 26.67° C | 69% | 1015 hPa | 0 mm | - | 39 W/m² | - |
| 1788611975 | 26.67° C | 70% | 1015 hPa | 0 mm | - | 38 W/m² | - |
| 1788611671 | 26.11° C | 70% | 1015.3 hPa | 0 mm | - | 33 W/m² | - |
| 1788611366 | 26.11° C | 70% | 1015 hPa | 0 mm | - | 26 W/m² | - |
| 1788611066 | 26.11° C | 70% | 1014.5 hPa | 0 mm | - | 19 W/m² | - |
| 1788610761 | 26.11° C | 70% | 1015 hPa | 0 mm | - | 16 W/m² | - |
| 1788610457 | 26.11° C | 71% | 1014.5 hPa | 0 mm | - | 12 W/m² | - |
| 1788610155 | 25.56° C | 72% | 1015 hPa | 0 mm | - | 9 W/m² | - |
| 1788609850 | 25.56° C | 72% | 1015 hPa | 0 mm | - | 7 W/m² | - |
| 1788609545 | 25.56° C | 73% | 1014.5 hPa | 0 mm | - | 5 W/m² | - |
| 1788609244 | 25.56° C | 72% | 1014.5 hPa | 0 mm | - | 2 W/m² | - |
* Rain latest hour (hover to see other rain measurements)
** Current wind speed in m/s (hover to see current wind gust speed)